Location: Smoky Mountain Stargaze
(35.4252°N, 83.3329°W)
Time: 16:53:39
(UTC-04:00)

Amateur Radio Satellites - All Passes

Search period start: 29 July 2014 16:23
Search period end: 30 July 2014 16:23
Location: Smoky Mountain Stargaze, 35.4252°N, 83.3329°W

Satellite Date Start Highest point End Downlink Frequencies (MHz)
Time Altitude Azimuth
UOSAT-12 29 Jul 16:31:21 16:33:57 15° 314° (NW) 16:36:34 437.025 FM, 437.400 FM
Saudisat 1A 29 Jul 16:34:21 16:37:53 23° 51° (NE) 16:41:24 436.775 MHz
TMSAT-1 29 Jul 16:56:48 17:01:04 25° 265° (W) 17:05:21 436.925 FM
KITSAT 1 29 Jul 17:10:43 17:18:31 55° 249° (WSW) 17:26:16 435.175 FM
OPAL 29 Jul 17:13:00 17:17:47 40° 101° (E) 17:22:37 ?
JAS-2 29 Jul 17:14:45 17:18:04 13° 59° (ENE) 17:21:18 435.800 - 435.900 CW/SSB, 435.910 FM
RS-15 29 Jul 17:28:02 17:34:50 18° 333° (NNW) 17:41:39 29.354 - 29.394 USB, Beacon 29.352 USB
AO-7 29 Jul 17:34:32 17:42:46 63° 256° (WSW) 17:51:04 29.400 - 29.500 MHz
JAS-1B 29 Jul 17:55:39 17:57:47 11° 278° (W) 17:59:58 435.800 - 435.900 CW/SSB
Uosat F 29 Jul 17:55:45 18:00:01 27° 263° (W) 18:04:18 435.120 FM
Saudisat 1A 29 Jul 18:13:35 18:17:29 32° 247° (WSW) 18:21:21 436.775 MHz
Hamsat 29 Jul 18:18:22 18:22:07 33° 72° (ENE) 18:25:53 145.90 MHz
OPAL 29 Jul 18:52:36 18:56:22 22° 295° (WNW) 19:00:11 ?
JAS-2 29 Jul 18:54:12 19:02:01 75° 74° (ENE) 19:09:24 435.800 - 435.900 CW/SSB, 435.910 FM
STRAND 1 29 Jul 19:37:30 19:41:54 29° 97° (E) 19:46:15 ?
RS-15 29 Jul 19:49:40 19:54:01 13° 12° (NNE) 19:58:24 29.354 - 29.394 USB, Beacon 29.352 USB
SO-67 29 Jul 19:52:54 19:56:19 63° 77° (ENE) 19:59:45 435.3500 MHz FM
Hamsat 29 Jul 19:55:33 19:58:09 16° 267° (W) 20:00:46 145.90 MHz
JAS-2 29 Jul 20:42:08 20:47:24 20° 268° (W) 20:52:33 435.800 - 435.900 CW/SSB, 435.910 FM
MaSat-1 29 Jul 20:50:43 20:53:19 17° 100° (E) 20:56:09 437.345 MHz
STRAND 1 29 Jul 21:16:40 21:20:59 28° 291° (WNW) 21:25:16 ?
HO-68 29 Jul 21:21:54 21:28:50 55° 69° (ENE) 21:35:47 435.675 MHz FM
Oscar 11 29 Jul 21:23:11 21:24:41 12° 65° (ENE) 21:26:12 145.825 FM, Beacon 2401.500 USB
SO-50 29 Jul 21:25:21 21:29:17 25° 51° (NE) 21:33:14 436.795 FM
RS-15 29 Jul 22:01:28 22:11:17 35° 45° (NE) 22:21:21 29.354 - 29.394 USB, Beacon 29.352 USB
UKube-1 29 Jul 22:11:39 22:16:01 85° 257° (WSW) 22:20:25 145.840 MHz, 145.915 MHz
MaSat-1 29 Jul 22:26:30 22:30:10 34° 301° (WNW) 22:34:25 437.345 MHz
Oscar 11 29 Jul 22:56:11 23:00:22 53° 260° (W) 23:04:36 145.825 FM, Beacon 2401.500 USB
SO-50 29 Jul 23:05:32 23:09:53 35° 247° (WSW) 23:14:16 436.795 FM
HO-68 29 Jul 23:11:11 23:16:47 25° 265° (W) 23:22:25 435.675 MHz FM
FUNcube-1 29 Jul 23:19:51 23:24:12 84° 258° (WSW) 23:28:28 145.950 - 145.970 MHz USB
UOSAT-12 29 Jul 23:21:47 23:25:45 26° 51° (NE) 23:29:39 437.025 FM, 437.400 FM
ISS 29 Jul 23:39:26 23:42:46 85° 137° (SE) 23:46:07 145.800 FM
RS-15 30 Jul 00:13:25 00:24:21 68° 246° (WSW) 00:35:46 29.354 - 29.394 USB, Beacon 29.352 USB
Sapphire 30 Jul 00:13:31 00:17:27 21° 106° (ESE) 00:21:25 437.095 MHz 1200 baud AX-25 AFSK
PCSat 30 Jul 00:45:24 00:50:31 46° 111° (ESE) 00:55:41 145.825 MHz
UOSAT-12 30 Jul 01:01:42 01:05:54 32° 248° (WSW) 01:10:01 437.025 FM, 437.400 FM
ISS 30 Jul 01:18:06 01:19:52 14° 334° (NNW) 01:21:38 145.800 FM
Sapphire 30 Jul 01:55:21 02:00:30 45° 301° (WNW) 02:05:41 437.095 MHz 1200 baud AX-25 AFSK
AO-40 30 Jul 02:05:36 04:01:22 33° 213° (SSW) 08:26:50 Beacon 2401.320
Oscar 19 30 Jul 02:21:09 02:25:26 26° 96° (E) 02:29:42 437.125 CW, 437.150 USB
PCSat 30 Jul 02:29:57 02:34:08 23° 308° (NW) 02:38:22 145.825 MHz
AO-Echo 30 Jul 02:31:22 02:33:44 13° 91° (E) 02:36:05 ?
RS-15 30 Jul 02:32:31 02:34:39 11° 263° (W) 02:36:49 29.354 - 29.394 USB, Beacon 29.352 USB
Oscar 16 30 Jul 02:49:07 02:54:10 52° 100° (E) 02:59:12 437.025 USB, Beacon 2401.1428
Oscar 10/S400 30 Jul 03:00:31 03:50:58 68° 200° (SSW) 13:08:51 145.825 - 145.975 CW/USB, Beacon 145.810 USB
ITAMSAT 1 30 Jul 03:12:22 03:17:08 36° 98° (E) 03:21:51 435.822 SSB
Uribyol 2 30 Jul 03:31:17 03:36:24 61° 101° (ESE) 03:41:29 436.500 FM
AO-27 30 Jul 03:31:37 03:36:44 59° 101° (E) 03:41:49 436.795 MHz FM
TMSAT-1 30 Jul 03:36:11 03:39:40 18° 93° (E) 03:43:09 436.925 FM
PANSAT 30 Jul 03:47:06 03:47:31 10° 158° (SSE) 03:47:57 not established
JAS-1B 30 Jul 03:47:50 03:56:46 54° 98° (E) 04:04:16 435.800 - 435.900 CW/SSB
Gurwin Techsat 1B 30 Jul 04:00:01 04:05:05 44° 99° (E) 04:10:06 435.225 FM
Oscar 19 30 Jul 04:00:10 04:04:44 32° 290° (WNW) 04:09:17 437.125 CW, 437.150 USB
AO-Echo 30 Jul 04:07:57 04:12:52 55° 287° (WNW) 04:17:36 ?
OPAL 30 Jul 04:25:09 04:29:55 51° 71° (ENE) 04:34:43 ?
Oscar 16 30 Jul 04:29:51 04:33:03 17° 295° (WNW) 04:36:15 437.025 USB, Beacon 2401.1428
Uosat F 30 Jul 04:30:26 04:31:28 11° 91° (E) 04:32:29 435.120 FM
ITAMSAT 1 30 Jul 04:52:21 04:56:23 23° 293° (WNW) 05:00:23 435.822 SSB
Uribyol 2 30 Jul 05:12:37 05:15:19 15° 296° (WNW) 05:18:01 436.500 FM
AO-27 30 Jul 05:12:50 05:15:42 15° 296° (WNW) 05:18:34 436.795 MHz FM
TMSAT-1 30 Jul 05:14:44 05:19:48 48° 288° (WNW) 05:24:51 436.925 FM
PANSAT 30 Jul 05:24:00 05:27:07 23° 170° (S) 05:30:13 not established
JAS-1B 30 Jul 05:38:51 05:46:40 33° 299° (WNW) 05:53:33 435.800 - 435.900 CW/SSB
AO-7 30 Jul 05:39:34 05:47:44 56° 103° (ESE) 05:55:48 29.400 - 29.500 MHz
Gurwin Techsat 1B 30 Jul 05:40:52 05:44:41 21° 294° (WNW) 05:48:31 435.225 FM
KITSAT 1 30 Jul 05:41:04 05:47:54 31° 106° (ESE) 05:54:44 435.175 FM
Uosat F 30 Jul 06:05:41 06:10:41 70° 285° (WNW) 06:15:38 435.120 FM
OPAL 30 Jul 06:06:17 06:09:03 15° 265° (W) 06:11:50 ?
ISS 30 Jul 06:10:57 06:13:53 27° 34° (NE) 06:16:47 145.800 FM
Saudisat 1A 30 Jul 06:40:35 06:41:54 11° 107° (ESE) 06:43:15 436.775 MHz
MaSat-1 30 Jul 06:47:33 06:52:08 29° 58° (ENE) 06:56:28 437.345 MHz
STRAND 1 30 Jul 06:50:32 06:55:01 31° 69° (ENE) 06:59:31 ?
PANSAT 30 Jul 07:03:30 07:06:52 28° 182° (S) 07:10:14 not established
AO-7 30 Jul 07:33:07 07:40:01 30° 300° (WNW) 07:46:53 29.400 - 29.500 MHz
KITSAT 1 30 Jul 07:35:02 07:42:53 52° 303° (WNW) 07:50:46 435.175 FM
Hamsat 30 Jul 07:42:21 07:46:40 75° 283° (WNW) 07:51:00 145.90 MHz
ISS 30 Jul 07:47:40 07:50:32 26° 229° (SW) 07:53:24 145.800 FM
JAS-2 30 Jul 07:53:40 07:59:29 84° 103° (ESE) 08:04:45 435.800 - 435.900 CW/SSB, 435.910 FM
Saudisat 1A 30 Jul 08:16:35 08:20:56 60° 302° (WNW) 08:25:20 436.775 MHz
MaSat-1 30 Jul 08:24:51 08:29:25 31° 256° (WSW) 08:33:40 437.345 MHz
STRAND 1 30 Jul 08:29:52 08:34:09 26° 264° (W) 08:38:27 ?
PANSAT 30 Jul 08:43:51 08:46:35 19° 195° (SSW) 08:49:19 not established
SO-67 30 Jul 08:52:41 08:56:09 65° 283° (WNW) 08:59:34 435.3500 MHz FM
Sapphire 30 Jul 09:05:52 09:07:09 11° 45° (NE) 09:08:27 437.095 MHz 1200 baud AX-25 AFSK
PCSat 30 Jul 09:36:58 09:41:03 21° 52° (NE) 09:45:07 145.825 MHz
KITSAT 1 30 Jul 09:37:17 09:40:22 12° 326° (NNW) 09:43:28 435.175 FM
JAS-2 30 Jul 09:42:04 09:43:33 11° 302° (WNW) 09:44:59 435.800 - 435.900 CW/SSB, 435.910 FM
UKube-1 30 Jul 10:03:55 10:07:10 20° 96° (E) 10:10:24 145.840 MHz, 145.915 MHz
HO-68 30 Jul 10:40:11 10:47:21 76° 104° (ESE) 10:54:28 435.675 MHz FM
Sapphire 30 Jul 10:46:03 10:51:30 75° 63° (ENE) 10:56:54 437.095 MHz 1200 baud AX-25 AFSK
Oscar 11 30 Jul 10:47:00 10:50:56 33° 98° (E) 10:54:51 145.825 FM, Beacon 2401.500 USB
FUNcube-1 30 Jul 11:12:41 11:15:58 22° 96° (E) 11:19:17 145.950 - 145.970 MHz USB
PCSat 30 Jul 11:19:30 11:24:44 50° 249° (WSW) 11:29:55 145.825 MHz
SO-50 30 Jul 11:39:28 11:41:40 14° 108° (ESE) 11:43:54 436.795 FM
UKube-1 30 Jul 11:39:36 11:43:21 29° 290° (WNW) 11:47:05 145.840 MHz, 145.915 MHz
RS-15 30 Jul 12:23:42 12:32:06 25° 103° (ESE) 12:40:18 29.354 - 29.394 USB, Beacon 29.352 USB
Oscar 11 30 Jul 12:23:53 12:26:51 18° 292° (WNW) 12:29:49 145.825 FM, Beacon 2401.500 USB
HO-68 30 Jul 12:29:37 12:34:15 19° 301° (WNW) 12:38:54 435.675 MHz FM
Sapphire 30 Jul 12:32:24 12:34:11 12° 258° (WSW) 12:35:58 437.095 MHz 1200 baud AX-25 AFSK
FUNcube-1 30 Jul 12:48:53 12:52:18 25° 289° (WNW) 12:55:45 145.950 - 145.970 MHz USB
SO-50 30 Jul 13:17:24 13:21:44 50° 303° (WNW) 13:26:09 436.795 FM
UOSAT-12 30 Jul 13:31:54 13:34:16 14° 108° (ESE) 13:36:40 437.025 FM, 437.400 FM
Oscar 19 30 Jul 13:35:17 13:39:34 28° 69° (ENE) 13:43:51 437.125 CW, 437.150 USB
KITSAT 1 30 Jul 13:39:28 13:41:31 11° 31° (NNE) 13:43:33 435.175 FM
AO-Echo 30 Jul 13:41:08 13:44:07 15° 64° (ENE) 13:47:07 ?
Oscar 16 30 Jul 14:03:06 14:08:05 56° 73° (ENE) 14:13:05 437.025 USB, Beacon 2401.1428
JAS-1B 30 Jul 14:26:41 14:34:43 39° 64° (ENE) 14:43:28 435.800 - 435.900 CW/SSB
ITAMSAT 1 30 Jul 14:27:22 14:32:14 41° 71° (ENE) 14:37:06 435.822 SSB
RS-15 30 Jul 14:32:08 14:43:19 75° 301° (WNW) 14:54:17 29.354 - 29.394 USB, Beacon 29.352 USB
Uribyol 2 30 Jul 14:46:05 14:51:14 68° 74° (ENE) 14:56:24 436.500 FM
AO-27 30 Jul 14:46:39 14:51:49 66° 74° (ENE) 14:57:00 436.795 MHz FM
AO-7 30 Jul 14:50:24 14:52:00 11° 48° (NE) 14:53:35 29.400 - 29.500 MHz
TMSAT-1 30 Jul 14:54:03 14:57:59 22° 67° (ENE) 15:01:56 436.925 FM
UOSAT-12 30 Jul 15:09:26 15:13:54 52° 303° (WNW) 15:18:29 437.025 FM, 437.400 FM
Oscar 19 30 Jul 15:14:22 15:18:47 29° 263° (W) 15:23:14 437.125 CW, 437.150 USB
AO-Echo 30 Jul 15:17:05 15:22:18 62° 259° (W) 15:27:35 ?
Gurwin Techsat 1B 30 Jul 15:18:04 15:23:11 51° 73° (ENE) 15:28:19 435.225 FM
KITSAT 1 30 Jul 15:31:30 15:39:14 47° 55° (NE) 15:46:54 435.175 FM
Uosat F 30 Jul 15:40:42 15:42:40 12° 63° (ENE) 15:44:38 435.120 FM
Oscar 16 30 Jul 15:45:04 15:47:44 14° 268° (W) 15:50:26 437.025 USB, Beacon 2401.1428
ITAMSAT 1 30 Jul 16:08:02 16:11:50 20° 265° (W) 16:15:39 435.822 SSB
